Flag for Switzerland Weather past 2 weeks in Lugano, Switzerland

Now
55 °F

Broken clouds.


Feels Like: 55 °F
Forecast: 52 / 56 °F
Wind: 2 mph from North

Location: Lugano Airport

Current Time: Apr 26, 2015 at 10:59:00 AM

Latest Report: Apr 26, 2015 at 10:20 AM


Visibility: 4 mi

Pressure: 29.95 "Hg

Humidity: 88%

Dew point: 52 °F

Location of LuganoLocation

Historic Weather in Lugano — Graph

°F

Lugano temperature yesterday

Maximum temperature yesterday: 63 °F (at 12:20 AM)
Minimum temperature yesterday: 52 °F (at 7:20 PM)
Average temperature yesterday: 56 °F

Past Weeks' High & Low Weather Summary

 TemperatureHumidityPressure
High104 °F (Apr 14, 3:20 PM)100% (Apr 18, 12:50 AM)30.42 "Hg (Apr 18, 12:50 AM)
Low37 °F (Apr 20, 5:50 AM)4% (Apr 14, 3:20 PM)29.86 "Hg (Apr 18, 1:20 PM)
Average58 °F60%30.12 "Hg
* Reported Apr 11 9:20 AM — Apr 26 9:50 AM, Lugano, Weather by CustomWeather, © 2015

Note: Actual official high and low records may vary slightly from our data, if they occured in-between our weather recording intervals... More about our weather records

Advertising

Lugano weather history for previous 24 hours

 ConditionsComfort  
Time TempWeatherWind HumidityBarometerVisibility
9:50 AM
Sun, Apr 26
55 °FBroken clouds.1 mph88%29.95 "Hg4 mi
9:20 AM54 °FBroken clouds.2 mph94%29.95 "Hg4 mi
8:50 AM54 °FFog.1 mph94%29.95 "Hg3 mi
8:20 AM54 °FFog.No wind94%29.95 "Hg3 mi
7:50 AM54 °FFog.No wind94%29.95 "Hg3 mi
7:20 AM54 °FDrizzle. Fog.1 mph94%29.95 "Hg3 mi
6:50 AM52 °FFog.1 mph100%29.95 "Hg3 mi
6:20 AM52 °FPartly cloudy.1 mph100%29.95 "Hg3 mi
5:20 AM52 °FPassing clouds.No wind100%29.95 "Hg3 mi
4:50 AM52 °FLight rain. Fog.1 mph100%29.95 "Hg1 mi
4:20 AM52 °FSprinkles. Fog.1 mph100%29.98 "Hg1 mi
3:50 AM52 °FMostly cloudy.1 mph100%29.98 "Hg6 mi
3:20 AM52 °FFog.1 mph100%29.98 "Hg3 mi
2:50 AM52 °FPassing clouds.No wind100%29.98 "Hg3 mi
2:20 AM52 °FSprinkles. Passing clouds.1 mph100%30.01 "Hg3 mi
1:50 AM52 °FDrizzle. Overcast.1 mph100%30.01 "Hg4 mi
1:20 AM52 °FMostly cloudy.1 mph100%30.01 "Hg3 mi
12:50 AM52 °FPassing clouds.1 mph94%30.01 "Hg3 mi
12:20 AM52 °FPartly cloudy.2 mph100%30.04 "Hg4 mi
11:20 PM
Sat, Apr 25
52 °FDrizzle. Mostly cloudy.1 mph100%30.01 "Hg3 mi
10:50 PM52 °FPartly cloudy.3 mph100%30.01 "HgN/A
10:20 PM52 °FMostly cloudy.2 mph94%30.04 "HgN/A
9:50 PM52 °FPartly cloudy.1 mph94%30.04 "Hg2 mi
9:20 PM52 °FDrizzle. Broken clouds.3 mph94%30.04 "Hg2 mi
8:50 PM52 °FDrizzle. Broken clouds.3 mph100%30.04 "Hg2 mi
8:20 PM52 °FBroken clouds.2 mph100%30.01 "Hg3 mi
7:50 PM52 °FBroken clouds.1 mph100%30.01 "Hg4 mi
7:20 PM52 °FBroken clouds.2 mph94%30.01 "Hg4 mi
6:50 PM54 °FSprinkles. Broken clouds.2 mph94%30.04 "Hg4 mi
6:20 PM54 °FSprinkles. Partly sunny.2 mph88%30.04 "Hg4 mi
5:50 PM54 °FDrizzle. Partly sunny.1 mph88%30.04 "Hg4 mi
5:20 PM54 °FLight rain. Partly sunny.2 mph94%30.04 "Hg4 mi
4:50 PM54 °FLight rain. Broken clouds.3 mph88%30.04 "Hg4 mi
4:20 PM54 °FLight rain. Fog.2 mph94%30.04 "Hg4 mi
3:50 PM55 °FLight rain. Fog.2 mph88%30.04 "Hg4 mi
3:20 PM55 °FLight rain. Fog.2 mph88%30.04 "Hg4 mi
2:50 PM55 °FLight rain. Fog.3 mph88%30.04 "Hg4 mi
2:20 PM55 °FFog.2 mph88%30.07 "Hg3 mi
1:50 PM55 °FFog.3 mph88%30.07 "Hg3 mi
1:20 PM55 °FFog.2 mph88%30.07 "Hg3 mi
12:50 PM55 °FLight rain. Fog.1 mph88%30.07 "Hg3 mi
12:20 PM55 °FLight rain. Fog.1 mph88%30.07 "Hg3 mi
11:50 AM55 °FLight rain. Fog.1 mph88%30.07 "Hg3 mi
11:20 AM55 °FLight rain. Fog.1 mph88%30.07 "Hg3 mi
10:50 AM55 °FLight rain. Fog.1 mph88%30.07 "Hg3 mi
10:20 AM54 °FLight rain. Fog.2 mph94%30.07 "Hg3 mi
Weather by CustomWeather, © 2015

See weather overviewHow to use our weather pages